Regional Weather Roundup
Issued by NWS

Home | Current Version | Previous Version | Text Only | Print | Product List | Glossary Off
Versions: 1 2 3 4 5 6 7 8 9 10 11 12 13 14 15 16 17 18 19 20 21 22 23 24 25 26 27 28 29 30 31 32 33 34 35 36 37 38 39 40 41 42 43 44 45 46 47 48 49 50

000
ASUS43 KLSX 101707
RWRMO

WEATHER SUMMARY FOR MISSOURI
NATIONAL WEATHER SERVICE SPRINGFIELD MO
1100 AM CST SUN DEC 10 2017

NOTE: "FAIR" INDICATES FEW OR NO CLOUDS BELOW 12,000 FEET WITH NO
       SIGNIFICANT WEATHER AND/OR OBSTRUCTIONS TO VISIBILITY.
       CURRENT SKY AND/OR WEATHER CONDITIONS ARE NOT AVAILABLE FOR
       CHILLICOTHE AND FARMINGTON.

MOZ001>031-035>038-043-044-053-054-101800-
...NORTHERN AND WESTERN MISSOURI...

CITY           SKY/WX    TMP DP  RH WIND       PRES   REMARKS
KANSAS CTY INT MOSUNNY   49  24  37 NW13      30.12R
KANSAS C DTWN  SUNNY     50  24  36 NW14G20   30.12S
LEE`S SUMMIT   SUNNY     48  24  39 NW17      30.12S
ST JOSEPH      SUNNY     47  26  44 NW14      30.13R
CHILLICOTHE      N/A     44  25  47 NW10G17   30.07F
KIRKSVILLE     CLOUDY    41  26  55 W14       30.01F

$$
MOZ066>068-077>081-088>096-101>105-101800-
...SOUTHWEST MISSOURI...

CITY           SKY/WX    TMP DP  RH WIND       PRES   REMARKS
SPRINGFIELD    SUNNY     49  23  36 W13       30.14S
JOPLIN         SUNNY     47  25  42 SW10      30.20S
BRANSON        SUNNY     52  21  30 SW14G25   30.16S

$$
MOZ032>034-039>042-045>050-055>058-069>072-101800-
...CENTRAL MISSOURI...

CITY           SKY/WX    TMP DP  RH WIND       PRES   REMARKS
COLUMBIA       SUNNY     46  25  43 W15       30.06S
JEFFERSON CITY CLOUDY    46  24  42 W15       30.07F
ROLLA          SUNNY     46  24  42 W15       30.08S
SEDALIA        SUNNY     47  25  42 NW13G22   30.11S
WHITEMAN AFB   MOSUNNY   46  24  41 NW9       30.07R
WARRENSBURG    SUNNY     46  25  42 NW12G18   30.11F
OSAGE BEACH    SUNNY     47  24  40 W9        30.11F

$$
MOZ051-052-059>065-101800-
...EAST CENTRAL MISSOURI...

CITY           SKY/WX    TMP DP  RH WIND       PRES   REMARKS
ST LOUIS INTL  MOSUNNY   42  23  46 W14       30.02F
SPIRIT OF STL  MOSUNNY   44  24  45 W14G25    30.02F
ST CHARLES     SUNNY     42  22  44 W14       30.02F

$$
MOZ072>076-082>087-097>100-106>115-101800-
...SOUTH CENTRAL AND SOUTHEAST MISSOURI...

CITY           SKY/WX    TMP DP  RH WIND       PRES   REMARKS
CAPE GIRARDEAU SUNNY     41  24  51 S14       30.14F
FARMINGTON     SUNNY     45  23  42 W12G23    30.08F
POPLAR BLUFF   SUNNY     42  26  53 S15       30.16F
WEST PLAINS    SUNNY     45  23  42 W13G25    30.13F

$$



USA.gov is the U.S. government's official web portal to all federal, state and local government web resources and services.